Change the Weather History Date:

Saturday, June 1, 2013

  Actual Average Record
Temperature  
Mean Temperature 64 °F -  
Max Temperature 75 °F 75 °F 96 °F (1977)
Min Temperature 53 °F 54 °F 40 °F (1955)
Degree Days  
Heating Degree Days 1    
Growing Degree Days 14 (Base 50)    
Moisture  
Dew Point 21 °F    
Average Humidity 19    
Maximum Humidity 30    
Minimum Humidity 12    
Precipitation  
Precipitation 0.00 in - - ()
Sea Level Pressure  
Sea Level Pressure 30.15 in    
Wind  
Wind Speed 8 mph (East)    
Max Wind Speed 16 mph    
Max Gust Speed 22 mph    
Visibility 10 miles    
Events      
Averages and records for this station are not official NWS values.
T = Trace of Precipitation, MM = Missing Value Source: NWS Daily Summary

Daily Weather History Graph

Daily Weather History Graph

Search for Another Location

Airport or City:

Trip Planner

Search our weather history database for the weather conditions in past years. The results will help you decide how hot, cold, wet, or windy it might be!

Date:

Astronomy

Jun. 01, 2013 Rise Set
Actual Time 6:07 AM MDT 9:01 PM MDT
Civil Twilight 5:34 AM MDT 9:34 PM MDT
Nautical Twilight 4:53 AM MDT 10:15 PM MDT
Astronomical Twilight 4:05 AM MDT 11:03 PM MDT
Moon 2:07 AM MDT (6/1) 2:32 PM MDT (6/1)
Length of Visible Light 15h 59m
Length of Day
14h 54m
Last Quarter, 40% of the Moon is Illuminated
Jun 1
Last Quarter
Jun 8
New
Jun 16
First Quarter
Jun 23
Full
Jun 29
Last Quarter

Hourly Weather History & Observations

Time (MDT) Temp. Dew Point Humidity Pressure Visibility Wind Dir Wind Speed Gust Speed Precip Events Conditions
12:15 AM 62.6 °F 12.2 °F 14% 30.22 in 10.0 mi North 16.1 mph 21.9 mph N/A   Clear
12:35 AM 62.6 °F 12.2 °F 14% 30.22 in 10.0 mi NNE 12.7 mph 16.1 mph N/A   Clear
12:55 AM 62.6 °F 14.0 °F 15% 30.22 in 10.0 mi NNE 13.8 mph 18.4 mph N/A   Clear
1:15 AM 62.6 °F 14.0 °F 15% 30.21 in 10.0 mi NNE 15.0 mph - N/A   Clear
1:35 AM 62.6 °F 15.8 °F 16% 30.22 in 10.0 mi North 16.1 mph - N/A   Clear
1:55 AM 62.6 °F 17.6 °F 18% 30.22 in 10.0 mi NNW 8.1 mph - N/A   Clear
2:15 AM 59.0 °F 17.6 °F 20% 30.22 in 10.0 mi Calm Calm - N/A   Clear
2:35 AM 60.8 °F 17.6 °F 19% 30.22 in 10.0 mi Calm Calm - N/A   Clear
2:55 AM 57.2 °F 19.4 °F 23% 30.23 in 10.0 mi Calm Calm - N/A   Clear
3:35 AM 55.4 °F 19.4 °F 25% 30.22 in 10.0 mi South 6.9 mph - N/A   Clear
3:55 AM 57.2 °F 19.4 °F 23% 30.22 in 10.0 mi WNW 3.5 mph - N/A   Clear
4:15 AM 55.4 °F 21.2 °F 26% 30.22 in 10.0 mi Calm Calm - N/A   Clear
4:35 AM 55.4 °F 21.2 °F 26% 30.22 in 10.0 mi Calm Calm - N/A   Clear
4:55 AM 55.4 °F 21.2 °F 26% 30.22 in 10.0 mi Calm Calm - N/A   Clear
5:15 AM 53.6 °F 19.4 °F 26% 30.22 in 10.0 mi Calm Calm - N/A   Clear
5:35 AM 53.6 °F 19.4 °F 26% 30.22 in 10.0 mi WNW 4.6 mph - N/A   Clear
5:55 AM 53.6 °F 21.2 °F 28% 30.22 in 10.0 mi WNW 4.6 mph - N/A   Clear
6:15 AM 53.6 °F 21.2 °F 28% 30.21 in 10.0 mi WNW 3.5 mph - N/A   Clear
6:35 AM 53.6 °F 21.2 °F 28% 30.22 in 10.0 mi WNW 4.6 mph - N/A   Clear
6:55 AM 53.6 °F 23.0 °F 30% 30.22 in 10.0 mi WNW 5.8 mph - N/A   Clear
7:15 AM 57.2 °F 23.0 °F 27% 30.22 in 10.0 mi Calm Calm - N/A   Clear
7:35 AM 57.2 °F 24.8 °F 29% 30.22 in 10.0 mi SE 6.9 mph - N/A   Clear
7:55 AM 57.2 °F 24.8 °F 29% 30.22 in 10.0 mi SE 5.8 mph - N/A   Clear
8:15 AM 60.8 °F 24.8 °F 25% 30.23 in 10.0 mi ESE 3.5 mph - N/A   Clear
8:35 AM 60.8 °F 23.0 °F 23% 30.22 in 10.0 mi East 5.8 mph - N/A   Clear
8:55 AM 60.8 °F 24.8 °F 25% 30.23 in 10.0 mi ESE 6.9 mph - N/A   Clear
9:15 AM 60.8 °F 24.8 °F 25% 30.23 in 10.0 mi ESE 6.9 mph - N/A   Clear
9:35 AM 62.6 °F 24.8 °F 24% 30.23 in 10.0 mi SE 6.9 mph - N/A   Clear
9:55 AM 62.6 °F 24.8 °F 24% 30.22 in 10.0 mi ESE 5.8 mph - N/A   Clear
10:15 AM 64.4 °F 24.8 °F 22% 30.22 in 10.0 mi SSE 5.8 mph - N/A   Clear
10:35 AM 64.4 °F 23.0 °F 21% 30.21 in 10.0 mi SE 3.5 mph - N/A   Clear
10:55 AM 66.2 °F 24.8 °F 21% 30.21 in 10.0 mi SE 6.9 mph - N/A   Clear
11:35 AM 66.2 °F 24.8 °F 21% 30.21 in 10.0 mi ESE 8.1 mph - N/A   Clear
12:15 PM 69.8 °F 26.6 °F 20% 30.20 in 10.0 mi East 9.2 mph - N/A   Clear
12:35 PM 69.8 °F 26.6 °F 20% 30.19 in 10.0 mi ESE 9.2 mph - N/A   Clear
12:55 PM 71.6 °F 24.8 °F 17% 30.18 in 10.0 mi ESE 9.2 mph - N/A   Clear
1:15 PM 69.8 °F 21.2 °F 16% 30.18 in 10.0 mi ESE 8.1 mph - N/A   Clear
1:35 PM 71.6 °F 23.0 °F 16% 30.17 in 10.0 mi East 11.5 mph - N/A   Clear
1:55 PM 71.6 °F 21.2 °F 15% 30.16 in 10.0 mi ESE 8.1 mph - N/A   Clear
2:15 PM 73.4 °F 21.2 °F 14% 30.15 in 10.0 mi East 11.5 mph - N/A   Clear
2:35 PM 73.4 °F 21.2 °F 14% 30.15 in 10.0 mi ESE 11.5 mph - N/A   Clear
2:55 PM 73.4 °F 23.0 °F 15% 30.14 in 10.0 mi ESE 9.2 mph - N/A   Clear
3:15 PM 73.4 °F 23.0 °F 15% 30.13 in 10.0 mi SE 8.1 mph - N/A   Clear
3:35 PM 73.4 °F 23.0 °F 15% 30.12 in 10.0 mi East 5.8 mph - N/A   Clear
3:55 PM 73.4 °F 23.0 °F 15% 30.11 in 10.0 mi East 10.4 mph - N/A   Clear
4:15 PM 75.2 °F 23.0 °F 14% 30.11 in 10.0 mi ESE 5.8 mph - N/A   Clear
4:35 PM 75.2 °F 23.0 °F 14% 30.10 in 10.0 mi East 5.8 mph - N/A   Clear
4:55 PM 75.2 °F 23.0 °F 14% 30.09 in 10.0 mi East 4.6 mph - N/A   Clear
5:15 PM 75.2 °F 23.0 °F 14% 30.08 in 10.0 mi SE 9.2 mph - N/A   Clear
5:35 PM 75.2 °F 23.0 °F 14% 30.07 in 10.0 mi SE 6.9 mph - N/A   Clear
5:55 PM 75.2 °F 21.2 °F 13% 30.06 in 10.0 mi ESE 4.6 mph - N/A   Clear
6:15 PM 75.2 °F 21.2 °F 13% 30.05 in 10.0 mi East 6.9 mph - N/A   Clear
6:35 PM 75.2 °F 21.2 °F 13% 30.05 in 10.0 mi SE 6.9 mph - N/A   Clear
6:55 PM 75.2 °F 21.2 °F 13% 30.04 in 10.0 mi SE 8.1 mph - N/A   Clear
7:15 PM 75.2 °F 21.2 °F 13% 30.04 in 10.0 mi ESE 5.8 mph - N/A   Clear
7:35 PM 73.4 °F 21.2 °F 14% 30.03 in 10.0 mi East 4.6 mph - N/A   Clear
7:55 PM 75.2 °F 19.4 °F 12% 30.03 in 10.0 mi ESE 5.8 mph - N/A   Clear
8:15 PM 75.2 °F 19.4 °F 12% 30.03 in 10.0 mi ESE 5.8 mph - N/A   Clear
8:35 PM 73.4 °F 19.4 °F 13% 30.02 in 10.0 mi East 5.8 mph - N/A   Clear
8:55 PM 73.4 °F 19.4 °F 13% 30.02 in 10.0 mi ENE 4.6 mph - N/A   Clear
9:15 PM 71.6 °F 19.4 °F 14% 30.02 in 10.0 mi ENE 8.1 mph - N/A   Clear
9:35 PM 71.6 °F 19.4 °F 14% 30.02 in 10.0 mi NNE 6.9 mph - N/A   Clear
9:55 PM 69.8 °F 19.4 °F 15% 30.03 in 10.0 mi NE 6.9 mph - N/A   Clear
10:15 PM 68.0 °F 19.4 °F 16% 30.03 in 10.0 mi NE 6.9 mph - N/A   Clear
10:35 PM 68.0 °F 19.4 °F 16% 30.03 in 10.0 mi NNE 6.9 mph - N/A   Clear
10:55 PM 66.2 °F 19.4 °F 17% 30.03 in 10.0 mi NNE 5.8 mph - N/A   Clear
11:15 PM 66.2 °F 21.2 °F 18% 30.02 in 10.0 mi NE 5.8 mph - N/A   Clear